Location: Newark
(40.4747°S, 176.7700°E)
Time: 18:35:03
(UTC+00:00)

Envisat - Visible Passes

Search period start: 27 January 2020 00:00
Search period end: 06 February 2020 00:00
Orbit: 764 x 766 km, 98.1° (Epoch: 27 January)

Date Brightness Start Highest point End Pass type
(mag) Time Alt. Az. Time Alt. Az. Time Alt. Az.
28 Jan 6.4 08:34:14 10° SSW 08:36:32 13° WSW 08:38:49 10° W visible
28 Jan 6.6 16:31:36 10° E 16:33:47 13° ESE 16:35:59 10° SE visible
31 Jan 6.2 08:22:16 10° SSW 08:25:24 16° WSW 08:28:29 10° W visible
02 Feb 6.3 16:44:30 10° ENE 16:47:46 17° ESE 16:51:04 10° SSE visible
03 Feb 6.1 08:10:32 10° SSW 08:14:14 20° WSW 08:17:54 10° WNW visible
05 Feb 6.6 08:37:29 10° SW 08:39:22 12° WSW 08:41:14 10° W visible
05 Feb 6.5 16:34:05 10° E 16:36:37 14° ESE 16:39:11 10° SSE visible
